Regional Weather Roundup
Issued by NWS Little Rock, AR

Home | Current Version | Previous Version | Graphics & Text | Print | Product List | Glossary On
Versions: 1 2 3 4 5 6 7 8 9 10 11 12 13 14 15 16 17 18 19 20 21 22 23 24 25 26 27 28 29 30 31
000
ASUS44 KLZK 181005
RWRLZK

WEATHER ROUNDUP FOR ARKANSAS
NATIONAL WEATHER SERVICE LITTLE ROCK AR
500 AM CDT FRI AUG 18 2017

NOTE: "FAIR" INDICATES FEW OR NO CLOUDS BELOW 12,000 FEET WITH NO
SIGNIFICANT WEATHER AND/OR OBSTRUCTIONS TO VISIBILITY.

ARZ001-003-010-029-181100-
NORTHWEST ARKANSAS

CITY           SKY/WX    TMP DP  RH WIND       PRES   REMARKS
FAYETTEVILLE   CLOUDY    67  67 100 CALM      30.03S
FORT SMITH     CLEAR     73  73 100 CALM      29.99S
HARRISON       CLEAR     67  67 100 SW3       30.03S
BENTONVILLE    CLEAR     68  66  94 CALM      30.02F
ROGERS         PTCLDY    67  66  97 E3        30.03F
SILOAM SPGS    MOCLDY    68  64  88 SE5       30.01F
HIGHFILL       MOCLDY    67  67 100 CALM      30.03S
$$

ARZ004-005-016-181100-
NORTH CENTRAL ARKANSAS

CITY           SKY/WX    TMP DP  RH WIND       PRES   REMARKS
BATESVILLE     PTCLDY    70  68  94 CALM      29.99S
FLIPPIN        CLEAR     66  61  82 CALM      29.98S
MTN HOME       CLEAR     66  66 100 CALM      30.00S
$$

ARZ040-041-181100-
WEST CENTRAL ARKANSAS

CITY           SKY/WX    TMP DP  RH WIND       PRES   REMARKS
MENA           MOCLDY    70  70 100 CALM      30.03S VSB 1
MOUNT IDA      PTCLDY    70  67  90 CALM      29.99F FOG
$$

ARZ009-017-025-026-028-181100-
NORTHEAST ARKANSAS

CITY           SKY/WX    TMP DP  RH WIND       PRES   REMARKS
JONESBORO      CLEAR     72  72 100 W3        29.97R
NEWPORT        CLEAR     71  71 100 W3        29.98S
WALNUT RIDGE   CLEAR     70  66  88 W6        29.97S
BLYTHEVILLE    PTCLDY    72  71  97 W5        29.96R
$$

ARZ022-023-033-042-044-181100-
CENTRAL ARKANSAS

CITY           SKY/WX    TMP DP  RH WIND       PRES   REMARKS
LITTLE ROCK    PTCLDY    71  71 100 SW5       29.99S
N LITTLE ROCK    N/A     74  72  94 W3        29.99F
JACKSONVILLE   CLEAR     71  71 100 CALM      29.98S
CONWAY           N/A     72  72 100 CALM      29.98S
SEARCY           N/A    N/A N/A N/A MISG        N/A
HOT SPRINGS    CLOUDY    73  73 100 CALM      30.01S FOG
RUSSELLVILLE   FOG       70  70 100 CALM      29.99S VSB 1/4
CLINTON        FOG       68  68 100 CALM      30.01R VSB 1/4
$$

ARZ036-181100-
EAST ARKANSAS

CITY           SKY/WX    TMP DP  RH WIND       PRES   REMARKS
WEST MEMPHIS   CLEAR     72  72 100 SW5       29.96S
$$

ARZ050-053-066-070-073-181100-
SOUTHWEST ARKANSAS

CITY           SKY/WX    TMP DP  RH WIND       PRES   REMARKS
ARKADELPHIA    CLOUDY    73  73 100 CALM      30.00S
CAMDEN         CLOUDY    75  72  88 CALM      29.99S
TEXARKANA      MOCLDY    74  74 100 NE3       29.99S
EL DORADO      MOCLDY    75  74  96 CALM      30.00S
DE QUEEN       MOCLDY    74  74 100 E3        29.98F
$$

ARZ056-057-069-181100-
SOUTHEAST ARKANSAS

CITY           SKY/WX    TMP DP  RH WIND       PRES   REMARKS
PINE BLUFF     CLOUDY    73  71  93 CALM      29.99S
MONTICELLO     MOCLDY    75  73  93 W3        30.00R

$$






USA.gov is the U.S. government's official web portal to all federal, state and local government web resources and services.